Regional Weather Roundup
Issued by NWS Sioux Falls, SD

Home | Current Version | Previous Version | Text Only | Print | Product List | Glossary Off
Versions: 1 2 3 4 5 6 7 8 9 10 11 12 13 14 15 16 17 18 19 20 21 22 23 24 25 26 27 28 29 30 31 32 33 34 35 36 37 38 39 40 41 42 43 44 45 46 47 48 49 50

637
ASUS43 KFSD 241710
RWRFSD

WEATHER ROUNDUP FOR SE SOUTH DAKOTA/SW MINNESOTA/NW IOWA
NATIONAL WEATHER SERVICE SIOUX FALLS SD
1200 PM CDT WED MAY 24 2017

NOTE: "FAIR" INDICATES FEW OR NO CLOUDS BELOW 12,000 FEET WITH NO
SIGNIFICANT WEATHER AND OR OBSTRUCTIONS TO VISIBILITY.


SDZ038>040-050-052>070-241800-
SOUTHEAST SOUTH DAKOTA

CITY           SKY/WX    TMP DP  RH WIND       PRES   REMARKS
BROOKINGS      CLOUDY    55  45  67 SE7       29.76F
CHAMBERLAIN    CLOUDY    59  45  60 S6        29.74F
HURON          PTSUNNY   59  45  59 S6        29.74F
MADISON        PTSUNNY   54  54 100 E7        29.76F
MITCHELL       PTSUNNY   59  46  62 VRB5      29.76F
SIOUX FALLS    PTSUNNY   59  47  64 N3        29.75F
WINNER         FAIR      60  45  57 SE10      29.74F
YANKTON        CLOUDY    57  45  64 CALM      29.77F
$$

MNZ071-072-080-081-089-090-097-098-241800-
SOUTHWEST MINNESOTA

CITY           SKY/WX    TMP DP  RH WIND       PRES   REMARKS
FAIRMONT       CLOUDY    51  46  83 N8        29.76F
JACKSON        PTSUNNY   54  45  71 VRB7      29.76S
LUVERNE        PTSUNNY   55  43  62 NE7       29.76F
MARSHALL       PTSUNNY   55  45  67 VRB3      29.76F
MONTEVIDEO     FAIR      61  48  63 E5        29.76F
PIPESTONE      FAIR      57  41  54 E6        29.75F
REDWOOD FALLS  CLOUDY    59  43  55 N7        29.75F
TRACY          PTSUNNY   55  47  73 E5        29.77F
WINDOM         FAIR      55  45  67 NE5       29.76F
WORTHINGTON    PTSUNNY   54  45  71 NE9       29.76F
$$

IAZ001>003-012>014-020>022-031-032-NEZ013-014-SDZ071-241800-
NORTHWEST IOWA

CITY           SKY/WX    TMP DP  RH WIND       PRES   REMARKS
CHEROKEE       FAIR      59  50  72 NE8       29.75F
DENISON        PTSUNNY   57  46  67 N9        29.75F
ESTHERVILLE    PTSUNNY   55  48  77 N13       29.74F
LE MARS        PTSUNNY   57  48  72 N9        29.77F
ORANGE CITY    FAIR      55  48  76 N8        29.76F
SHELDON        PTSUNNY   55  48  76 VRB5G12     N/A
SIOUX CITY     FAIR      59  49  69 NE8       29.76F
SPENCER        FAIR      59  46  62 NE13      29.75S
STORM LAKE       N/A     57  46  67 N10       29.75S
$$

ABBREVIATIONS USED IN REMARKS
   TC - TEMPERATURE IN CELSIUS
  WCI - WIND CHILL INDEX
   HX - HEAT INDEX
  VSB - VISIBILITY





USA.gov is the U.S. government's official web portal to all federal, state and local government web resources and services.